Location: Home
(42.5358°N, 72.7383°W)
Time: 13:46:37
(UTC-05:00)

Transit 2A Rocket - Pass Details

Date: 04 December 2021
Orbit: 584 x 918 km, 66.7° (Epoch: 22 January)

Event Time Altitude Azimuth Distance (km) Brightness Sun altitude
Rises 16:44:12 0° 324° (NW) 3,553 8.6 -5.1°
Reaches altitude 10° 16:46:51 10° 319° (NW) 2,589 8.0 -5.5°
Maximum altitude 16:52:36 47° 247° (WSW) 1,135 6.5 -6.5°
Drops below altitude 10° 16:57:59 10° 175° (S) 2,419 7.8 -7.4°
Sets 17:00:24 0° 169° (S) 3,298 8.5 -7.8°
